| time (UTC) | temp F | wind direction | speed knots | gust knots | rain 1hr in | rain 24hr in | rain mn in | humidity % | barometer mb |
| 20260505040514 | 46 | 85 | 5.2 | 11.3 | 0.00 | 0.00 | 0.00 | 64 | 1012.6 |
| 20260505040020 | 46 | 78 | 7.0 | 10.4 | 0.00 | 0.00 | 0.00 | 66 | 1012.5 |
| 20260505035522 | 46 | 56 | 6.1 | 12.2 | 0.00 | 0.00 | 0.00 | 67 | 1012.4 |
| 20260505035029 | 46 | 57 | 7.0 | 12.2 | 0.00 | 0.00 | 0.00 | 68 | 1012.4 |
| 20260505034530 | 46 | 77 | 6.1 | 10.4 | 0.00 | 0.00 | 0.00 | 69 | 1012.4 |
| 20260505034017 | 46 | 68 | 4.3 | 10.4 | 0.00 | 0.00 | 0.00 | 70 | 1012.4 |
| 20260505033538 | 47 | 74 | 6.1 | 9.6 | 0.00 | 0.00 | 0.00 | 73 | 1012.2 |
| 20260505033046 | 47 | 78 | 5.2 | 7.8 | 0.00 | 0.00 | 0.00 | 74 | 1012.2 |
| 20260505032533 | 47 | 47 | 3.5 | 8.7 | 0.00 | 0.00 | 0.00 | 72 | 1012.1 |
| 20260505032014 | 47 | 79 | 4.3 | 8.7 | 0.00 | 0.00 | 0.00 | 71 | 1012.0 |
| 20260505031541 | 47 | 93 | 4.3 | 9.6 | 0.00 | 0.00 | 0.00 | 70 | 1011.9 |
| 20260505031020 | 48 | 86 | 6.1 | 11.3 | 0.00 | 0.00 | 0.00 | 71 | 1011.7 |
| 20260505030541 | 48 | 70 | 6.1 | 12.2 | 0.00 | 0.00 | 0.00 | 74 | 1011.8 |
| 20260505030047 | 48 | 106 | 8.7 | 12.2 | 0.00 | 0.00 | 0.00 | 75 | 1011.6 |
| 20260505025534 | 48 | 99 | 7.0 | 9.6 | 0.00 | 0.00 | 0.00 | 74 | 1011.6 |
| 20260505025013 | 48 | 99 | 6.1 | 11.3 | 0.00 | 0.00 | 0.00 | 73 | 1011.5 |
| 20260505024515 | 49 | 113 | 8.7 | 11.3 | 0.00 | 0.00 | 0.00 | 73 | 1011.4 |
| 20260505024022 | 49 | 116 | 7.8 | 11.3 | 0.00 | 0.00 | 0.00 | 73 | 1011.3 |
| 20260505023543 | 49 | 121 | 7.0 | 10.4 | 0.00 | 0.00 | 0.00 | 74 | 1011.3 |
| 20260505023030 | 49 | 122 | 7.0 | 10.4 | 0.00 | 0.00 | 0.00 | 75 | 1011.2 |
| 20260505022530 | 49 | 119 | 7.0 | 9.6 | 0.00 | 0.00 | 0.00 | 75 | 1011.2 |
| 20260505022038 | 49 | 132 | 7.0 | 8.7 | 0.00 | 0.00 | 0.00 | 74 | 1011.1 |
| 20260505021539 | 49 | 139 | 6.1 | 8.7 | 0.00 | 0.00 | 0.00 | 73 | 1011.1 |
| 20260505021046 | 50 | 129 | 4.3 | 7.8 | 0.00 | 0.00 | 0.00 | 72 | 1011.2 |
| 20260505020524 | 50 | 122 | 6.1 | 9.6 | 0.00 | 0.00 | 0.00 | 71 | 1011.2 |
| 20260505020033 | 50 | 126 | 6.1 | 10.4 | 0.00 | 0.00 | 0.00 | 71 | 1011.2 |
| 20260505015532 | 50 | 139 | 7.8 | 10.4 | 0.00 | 0.00 | 0.00 | 70 | 1011.1 |
| 20260505015012 | 50 | 139 | 6.1 | 10.4 | 0.00 | 0.00 | 0.00 | 70 | 1011.1 |
| 20260505014520 | 51 | 128 | 7.0 | 12.2 | 0.00 | 0.00 | 0.00 | 70 | 1011.0 |
| 20260505014021 | 51 | 118 | 8.7 | 12.2 | 0.00 | 0.00 | 0.00 | 69 | 1010.9 |
| 20260505013531 | 51 | 132 | 5.2 | 7.8 | 0.00 | 0.00 | 0.00 | 69 | 1010.8 |
| 20260505013030 | 51 | 148 | 1.7 | 6.1 | 0.00 | 0.00 | 0.00 | 70 | 1010.8 |
| 20260505012530 | 51 | 139 | 3.5 | 4.3 | 0.00 | 0.00 | 0.00 | 68 | 1011.0 |
| 20260505012019 | 52 | 104 | 3.5 | 5.2 | 0.00 | 0.00 | 0.00 | 68 | 1010.8 |
| 20260505011519 | 52 | 79 | 2.6 | 6.1 | 0.00 | 0.00 | 0.00 | 68 | 1010.7 |
| 20260505011019 | 51 | 62 | 2.6 | 5.2 | 0.00 | 0.00 | 0.00 | 68 | 1010.7 |
| 20260505010525 | 51 | 49 | 3.5 | 5.2 | 0.00 | 0.00 | 0.00 | 69 | 1010.8 |
| 20260505010032 | 52 | 99 | 2.6 | 5.2 | 0.00 | 0.00 | 0.00 | 69 | 1010.7 |
| 20260505005533 | 52 | 122 | 3.5 | 6.1 | 0.00 | 0.00 | 0.00 | 68 | 1010.7 |
| 20260505005032 | 52 | 148 | 2.6 | 5.2 | 0.00 | 0.00 | 0.00 | 67 | 1010.7 |
| 20260505004519 | 52 | 139 | 3.5 | 5.2 | 0.00 | 0.00 | 0.00 | 65 | 1010.7 |
| 20260505004020 | 52 | 49 | 1.7 | 6.1 | 0.00 | 0.00 | 0.00 | 63 | 1010.7 |
| 20260505003520 | 52 | 323 | 3.5 | 6.1 | 0.00 | 0.00 | 0.00 | 63 | 1010.7 |
| 20260505003028 | 52 | 339 | 4.3 | 7.8 | 0.00 | 0.00 | 0.00 | 64 | 1010.8 |
| 20260505002528 | 52 | 320 | 4.3 | 11.3 | 0.00 | 0.00 | 0.00 | 64 | 1010.8 |
| 20260505002015 | 52 | 320 | 5.2 | 12.2 | 0.00 | 0.00 | 0.00 | 65 | 1010.8 |
| 20260505001513 | 51 | 324 | 8.7 | 12.2 | 0.00 | 0.00 | 0.00 | 66 | 1010.8 |
| 20260505001021 | 51 | 310 | 7.0 | 13.0 | 0.00 | 0.00 | 0.00 | 67 | 1010.8 |
| 20260505000548 | 52 | 334 | 8.7 | 13.0 | 0.00 | 0.00 | 0.00 | 66 | 1010.8 |
| 20260505000027 | 52 | 310 | 7.8 | 13.0 | 0.00 | 0.00 | 0.00 | 64 | 1010.9 |
| 20260504235535 | 53 | 359 | 7.8 | 13.9 | 0.00 | 0.00 | 0.00 | 60 | 1011.0 |
| 20260504235014 | 55 | 320 | 7.0 | 13.9 | 0.00 | 0.00 | 0.00 | 51 | 1010.9 |
| 20260504234515 | 56 | 336 | 7.8 | 16.5 | 0.00 | 0.00 | 0.00 | 48 | 1010.7 |
| 20260504234022 | 58 | 327 | 11.3 | 16.5 | 0.00 | 0.00 | 0.00 | 44 | 1010.4 |
| 20260504233543 | 59 | 53 | 4.3 | 7.8 | 0.00 | 0.00 | 0.00 | 40 | 1010.2 |
| 20260504233029 | 59 | 350 | 2.6 | 5.2 | 0.00 | 0.00 | 0.00 | 39 | 1010.2 |
| 20260504232530 | 59 | 70 | 1.7 | 6.1 | 0.00 | 0.00 | 0.00 | 39 | 1010.1 |
| 20260504232037 | 59 | 20 | 2.6 | 6.1 | 0.00 | 0.00 | 0.00 | 39 | 1010.0 |
| 20260504231517 | 59 | 62 | 3.5 | 7.8 | 0.00 | 0.00 | 0.00 | 39 | 1009.9 |
| 20260504231026 | 59 | 78 | 4.3 | 7.8 | 0.00 | 0.00 | 0.00 | 39 | 1009.8 |
| 20260504230525 | 59 | 55 | 3.5 | 7.0 | 0.00 | 0.00 | 0.00 | 40 | 1009.8 |
| 20260504230033 | 59 | 336 | 1.7 | 7.8 | 0.00 | 0.00 | 0.00 | 40 | 1009.8 |
| 20260504225539 | 59 | 85 | 2.6 | 7.8 | 0.00 | 0.00 | 0.00 | 41 | 1009.7 |
| 20260504225020 | 59 | 45 | 4.3 | 7.8 | 0.00 | 0.00 | 0.00 | 40 | 1009.8 |
| 20260504224520 | 59 | 66 | 5.2 | 7.8 | 0.00 | 0.00 | 0.00 | 40 | 1009.7 |
| 20260504224027 | 59 | 101 | 1.7 | 8.7 | 0.00 | 0.00 | 0.00 | 40 | 1009.8 |
| 20260504223555 | 59 | 98 | 4.3 | 8.7 | 0.00 | 0.00 | 0.00 | 40 | 1009.7 |
| 20260504223014 | 59 | 104 | 2.6 | 6.1 | 0.00 | 0.00 | 0.00 | 39 | 1009.7 |
| 20260504222514 | 59 | 62 | 2.6 | 7.8 | 0.00 | 0.00 | 0.00 | 39 | 1009.8 |
| 20260504222021 | 60 | 79 | 4.3 | 10.4 | 0.00 | 0.00 | 0.00 | 40 | 1009.9 |
| 20260504221522 | 60 | 43 | 4.3 | 10.4 | 0.00 | 0.00 | 0.00 | 39 | 1009.9 |
| 20260504221051 | 60 | 339 | 3.5 | 7.8 | 0.00 | 0.00 | 0.00 | 39 | 1010.0 |
| 20260504220531 | 60 | 340 | 4.3 | 9.6 | 0.00 | 0.00 | 0.00 | 39 | 1010.1 |
| 20260504220039 | 60 | 341 | 6.1 | 9.6 | 0.00 | 0.00 | 0.00 | 39 | 1010.0 |
| 20260504215519 | 60 | 343 | 4.3 | 8.7 | 0.00 | 0.00 | 0.00 | 40 | 1010.1 |
| 20260504215026 | 59 | 309 | 4.3 | 8.7 | 0.00 | 0.00 | 0.00 | 39 | 1010.2 |
| 20260504214547 | 60 | 328 | 4.3 | 8.7 | 0.00 | 0.00 | 0.00 | 39 | 1010.2 |
| 20260504214013 | 60 | 320 | 2.6 | 9.6 | 0.00 | 0.00 | 0.00 | 39 | 1010.2 |
| 20260504213541 | 60 | 346 | 4.3 | 9.6 | 0.00 | 0.00 | 0.00 | 39 | 1010.2 |
| 20260504213021 | 60 | 321 | 6.1 | 13.9 | 0.00 | 0.00 | 0.00 | 39 | 1010.2 |
| 20260504212523 | 60 | 335 | 8.7 | 13.9 | 0.00 | 0.00 | 0.00 | 38 | 1010.2 |
| 20260504212013 | 61 | 334 | 7.8 | 12.2 | 0.00 | 0.00 | 0.00 | 38 | 1010.3 |
| 20260504211513 | 61 | 22 | 6.1 | 10.4 | 0.00 | 0.00 | 0.00 | 38 | 1010.3 |
| 20260504211014 | 61 | 232 | 5.2 | 13.0 | 0.00 | 0.00 | 0.00 | 39 | 1010.4 |
| 20260504210542 | 60 | 62 | 2.6 | 13.0 | 0.00 | 0.00 | 0.00 | 41 | 1010.6 |
| 20260504210047 | 60 | 70 | 7.8 | 13.0 | 0.00 | 0.00 | 0.00 | 39 | 1010.6 |
| 20260504205527 | 60 | 57 | 6.1 | 13.0 | 0.00 | 0.00 | 0.00 | 39 | 1010.6 |
| 20260504205035 | 61 | 43 | 8.7 | 13.0 | 0.00 | 0.00 | 0.00 | 39 | 1010.6 |
| 20260504204515 | 61 | 62 | 7.8 | 12.2 | 0.00 | 0.00 | 0.00 | 38 | 1010.5 |
| 20260504204016 | 61 | 64 | 6.1 | 13.0 | 0.00 | 0.00 | 0.00 | 38 | 1010.4 |
| 20260504203524 | 61 | 49 | 5.2 | 12.2 | 0.00 | 0.00 | 0.00 | 37 | 1010.4 |
| 20260504203027 | 61 | 72 | 5.2 | 9.6 | 0.00 | 0.00 | 0.00 | 37 | 1010.5 |
| 20260504202527 | 61 | 82 | 4.3 | 7.8 | 0.00 | 0.00 | 0.00 | 36 | 1010.6 |
| 20260504202017 | 61 | 104 | 2.6 | 7.0 | 0.00 | 0.00 | 0.00 | 37 | 1010.6 |
| 20260504201520 | 60 | 355 | 3.5 | 9.6 | 0.00 | 0.00 | 0.00 | 36 | 1010.7 |
| 20260504201049 | 61 | 104 | 3.5 | 11.3 | 0.00 | 0.00 | 0.00 | 36 | 1010.7 |
| 20260504200528 | 61 | 115 | 7.0 | 11.3 | 0.00 | 0.00 | 0.00 | 36 | 1010.7 |
| 20260504200036 | 61 | 68 | 4.3 | 9.6 | 0.00 | 0.00 | 0.00 | 37 | 1010.6 |
| 20260504195516 | 61 | 20 | 4.3 | 8.7 | 0.00 | 0.00 | 0.00 | 36 | 1010.7 |
| 20260504195019 | 61 | 62 | 4.3 | 9.6 | 0.00 | 0.00 | 0.00 | 37 | 1010.8 |
| 20260504194528 | 61 | 321 | 3.5 | 9.6 | 0.00 | 0.00 | 0.00 | 37 | 1010.8 |
| 20260504194029 | 60 | 55 | 3.5 | 11.3 | 0.00 | 0.00 | 0.00 | 37 | 1010.8 |
| 20260504193537 | 60 | 59 | 6.1 | 11.3 | 0.00 | 0.00 | 0.00 | 38 | 1010.8 |
| 20260504193041 | 60 | 318 | 4.3 | 11.3 | 0.00 | 0.00 | 0.00 | 37 | 1010.8 |
| 20260504192527 | 60 | 37 | 6.1 | 11.3 | 0.00 | 0.00 | 0.00 | 36 | 1010.6 |
| 20260504192055 | 61 | 61 | 5.2 | 15.6 | 0.00 | 0.00 | 0.00 | 37 | 1010.6 |
| 20260504191537 | 61 | 51 | 7.0 | 15.6 | 0.00 | 0.00 | 0.00 | 36 | 1010.6 |
| 20260504191027 | 61 | 75 | 7.0 | 14.8 | 0.00 | 0.00 | 0.00 | 35 | 1010.4 |
| 20260504190529 | 61 | 32 | 7.8 | 14.8 | 0.00 | 0.00 | 0.00 | 35 | 1010.3 |
| 20260504190031 | 62 | 54 | 11.3 | 20.9 | 0.00 | 0.00 | 0.00 | 35 | 1010.3 |
| 20260504185538 | 62 | 22 | 9.6 | 20.9 | 0.00 | 0.00 | 0.00 | 34 | 1010.2 |
| 20260504185013 | 63 | 50 | 12.2 | 19.1 | 0.00 | 0.00 | 0.00 | 34 | 1010.2 |
| 20260504184519 | 63 | 79 | 11.3 | 20.0 | 0.00 | 0.00 | 0.00 | 34 | 1010.2 |
| 20260504184048 | 63 | 74 | 10.4 | 18.2 | 0.00 | 0.00 | 0.00 | 34 | 1010.3 |
| 20260504183530 | 63 | 70 | 10.4 | 17.4 | 0.00 | 0.00 | 0.00 | 33 | 1010.2 |
| 20260504183041 | 63 | 60 | 10.4 | 21.7 | 0.00 | 0.00 | 0.00 | 34 | 1010.2 |
| 20260504182524 | 63 | 66 | 10.4 | 21.7 | 0.00 | 0.00 | 0.00 | 34 | 1010.2 |
| 20260504182053 | 64 | 64 | 9.6 | 20.9 | 0.00 | 0.00 | 0.00 | 32 | 1010.2 |
| 20260504181513 | 65 | 75 | 10.4 | 18.2 | 0.00 | 0.00 | 0.00 | 32 | 1010.2 |
| 20260504181016 | 64 | 57 | 7.8 | 20.0 | 0.00 | 0.00 | 0.00 | 33 | 1010.1 |
| 20260504180544 | 63 | 85 | 8.7 | 23.5 | 0.00 | 0.00 | 0.00 | 32 | 1010.0 |
| 20260504180026 | 65 | 55 | 12.2 | 23.5 | 0.00 | 0.00 | 0.00 | 30 | 1010.0 |
| 20260504175535 | 67 | 85 | 11.3 | 19.1 | 0.00 | 0.00 | 0.00 | 28 | 1010.0 |
| 20260504175034 | 68 | 49 | 10.4 | 19.1 | 0.00 | 0.00 | 0.00 | 27 | 1009.8 |
| 20260504174520 | 67 | 57 | 9.6 | 23.5 | 0.00 | 0.00 | 0.00 | 28 | 1009.8 |
| 20260504174043 | 67 | 68 | 11.3 | 23.5 | 0.00 | 0.00 | 0.00 | 27 | 1009.8 |
| 20260504173531 | 69 | 37 | 8.7 | 22.6 | 0.00 | 0.00 | 0.00 | 23 | 1009.7 |
| 20260504173012 | 69 | 54 | 6.1 | 13.9 | 0.00 | 0.00 | 0.00 | 20 | 1009.7 |
| 20260504172541 | 68 | 324 | 7.0 | 14.8 | 0.00 | 0.00 | 0.00 | 22 | 1009.6 |
| 20260504172029 | 68 | 338 | 6.1 | 14.8 | 0.00 | 0.00 | 0.00 | 21 | 1009.8 |
| 20260504171529 | 69 | 358 | 9.6 | 13.9 | 0.00 | 0.00 | 0.00 | 21 | 1009.7 |
| 20260504171031 | 68 | 314 | 7.8 | 12.2 | 0.00 | 0.00 | 0.00 | 22 | 1009.6 |
| 20260504170512 | 68 | 31 | 3.5 | 10.4 | 0.00 | 0.00 | 0.00 | 21 | 1009.6 |
| 20260504151022 | 63 | 338 | 7.0 | 12.2 | 0.00 | 0.00 | 0.00 | 24 | 1009.9 |
| 20260504150531 | 63 | 344 | 7.8 | 12.2 | 0.00 | 0.00 | 0.00 | 24 | 1009.9 |
| 20260504141039 | 57 | 355 | 4.3 | 7.0 | 0.00 | 0.00 | 0.00 | 33 | 1009.9 |
| 20260504140518 | 56 | 332 | 1.7 | 6.1 | 0.00 | 0.00 | 0.00 | 35 | 1009.9 |
| 20260504130536 | 47 | 148 | 3.5 | 5.2 | 0.00 | 0.00 | 0.00 | 52 | 1009.8 |
| 20260504110531 | 39 | 257 | 3.5 | 6.1 | 0.00 | 0.00 | 0.00 | 69 | 1009.7 |
| 20260504100522 | 37 | 230 | 1.7 | 2.6 | 0.00 | 0.00 | 0.00 | 67 | 1010.1 |
| 20260504081529 | 36 | 249 | 0.9 | 4.3 | 0.00 | 0.00 | 0.00 | 71 | 1011.3 |
| 20260504081038 | 37 | 243 | 1.7 | 3.5 | 0.00 | 0.00 | 0.00 | 71 | 1011.3 |
| 20260504080520 | 37 | 228 | 0.9 | 4.3 | 0.00 | 0.00 | 0.00 | 71 | 1011.4 |
| 20260504050534 | 40 | 164 | 0.9 | 2.6 | 0.00 | 0.00 | 0.00 | 61 | 1012.9 |
| 20260504050014 | 40 | 247 | 0.9 | 2.6 | 0.00 | 0.00 | 0.00 | 61 | 1013.0 |
| 20260504045522 | 41 | 232 | 1.7 | 2.6 | 0.00 | 0.00 | 0.00 | 61 | 1013.0 |
| 20260504045023 | 41 | 216 | 0.0 | 1.7 | 0.00 | 0.00 | 0.00 | 60 | 1013.1 |
| 20260504044534 | 41 | 290 | 0.9 | 1.7 | 0.00 | 0.00 | 0.00 | 60 | 1013.0 |
| 20260504044013 | 41 | 131 | 0.9 | 1.7 | 0.00 | 0.00 | 0.00 | 59 | 1013.0 |
| 20260504043514 | 41 | 62 | 0.0 | 1.7 | 0.00 | 0.00 | 0.00 | 58 | 1013.1 |
| 20260504043022 | 42 | 276 | 0.9 | 1.7 | 0.00 | 0.00 | 0.00 | 58 | 1013.1 |
| 20260504042550 | 42 | 320 | 0.9 | 1.7 | 0.00 | 0.00 | 0.00 | 57 | 1013.1 |
| 20260504042050 | 42 | 104 | 0.0 | 1.7 | 0.00 | 0.00 | 0.00 | 57 | 1013.1 |
| 20260504041538 | 43 | 216 | 0.9 | 1.7 | 0.00 | 0.00 | 0.00 | 56 | 1013.2 |
| 20260504041018 | 43 | 104 | 0.0 | 1.7 | 0.00 | 0.00 | 0.00 | 55 | 1013.2 |